Location: *
(18.5200°S, 46.4500°E)
Time: 22:00:03
(UTC+00:00)

YAOGAN 6 - Pass Details

Date: 19 July 2019
Orbit: 466 x 505 km, 97.1° (Epoch: 23 August)

Event Time Altitude Azimuth Distance (km) Brightness Sun altitude
Exits shadow 15:48:55 40° 117° (ESE) 764 3.0 -17.4°
Maximum altitude 15:49:40 46° 81° (E) 684 2.9 -17.5°
Drops below altitude 10° 15:53:13 10° 6° (N) 1,699 5.4 -18.3°
Sets 15:55:19 0° 360° (N) 2,570 6.5 -18.8°
